Hourly Data Report for October 05, 2017

All times are specified in Local Standard Time (LST). Add 1 hour to adjust for Daylight Saving Time where and when it is observed.

CLEARWATER AUTO
BRITISH COLUMBIA

51°39'09.300" N
120°04'56.400" W
438.00 m
1161650
71645
VCW

Download Data

Hourly Data (October 2017)
Hourly Data Report for October 5, 2017
Temp Definition
°C
Dew Point Temp Definition
°C
Rel Hum Definition
%
Wind Dir Definition
10's deg

Wind Spd Definition
km/h
Visibility Definition
km
Stn Press Definition
kPa
Hmdx Definition


Wind Chill Definition


Weather Definition


TIME
00:00 1.4 -1.1 83   0   96.91     LegendNANA
01:00 0.8 -1.7 83 33 1   96.95     LegendNANA
02:00 0.6 -1.9 84 31 3   96.97     LegendNANA
03:00 0.0 -2.4 84 0 1   96.98   0 LegendNANA
04:00 -0.2 -2.6 84 33 2   96.97   -1 LegendNANA
05:00 -1.0 -3.4 84 0 1   96.99   -1 LegendNANA
06:00 -1.4 -3.8 83 33 1   97.02   -2 LegendNANA
07:00 -0.7 -3.0 85   0   97.05     LegendNANA
08:00 1.4 -0.2 89 10 3   97.02     LegendNANA
09:00 3.7 0.5 80 19 1   96.99     LegendNANA
10:00 7.7 1.3 64 22 1   96.91     LegendNANA
11:00 10.7 0.9 51 19 4   96.81     LegendNANA
12:00 13.5 1.2 43 8 3   96.69     LegendNANA
13:00 15.2 0.9 38 20 3   96.58     LegendNANA
14:00 16.7 -0.3 31 23 3   96.48     LegendNANA
15:00 17.9 -0.3 29 9 1   96.37     LegendNANA
16:00 18.5 0.0 29 21 2   96.28     LegendNANA
17:00 12.9 3.1 51 32 6   96.23     LegendNANA
18:00 8.4 2.5 66 32 5   96.23     LegendNANA
19:00 6.3 1.6 72 35 1   96.22     LegendNANA
20:00 4.7 1.1 77   0   96.22     LegendNANA
21:00 3.5 0.4 80 32 2   96.22     LegendNANA
22:00 2.8 -0.1 81 0 1   96.19     LegendNANA
23:00 1.9 -0.7 83 14 1   96.15     LegendNANA

Notes on Data Quality.

Legend

  • E = Estimated
  • M = Missing
  • NA = Not Available
  • ‡ = Partner data that is not subject to review by the National Climate Archives
Date modified: